Kaltag, AK

3:21 PM AKDT on July 24, 2016 (GMT -0800)
Kaltag

Weather History for PAKV - February, 2012

Change the Weather History Date:

Wednesday, February 1, 2012

  Actual Average (PAGA) Record (PAGA)
Temperature  
Mean Temperature -34 °F -  
Max Temperature -11 °F -2 °F 33 °F (1957)
Min Temperature -53 °F -19 °F -52 °F (2012)
Degree Days  
Heating Degree Days 98    
Moisture  
Dew Point -29 °F    
Average Humidity 74    
Maximum Humidity 77    
Minimum Humidity 69    
Precipitation  
Precipitation 0.02 in - - ()
Sea Level Pressure  
Sea Level Pressure 29.41 in    
Wind  
Wind Speed 2 mph (ENE)    
Max Wind Speed 8 mph    
Max Gust Speed -    
Visibility 4 miles    
Events Snow    
Averages and records for this station are not official NWS values.
T = Trace of Precipitation, MM = Missing Value Source: NWS Daily Summary

Daily Weather History Graph

Daily Weather History Graph

Search for Another Location

Airport or City:

Trip Planner

Search our weather history database for the weather conditions in past years. The results will help you decide how hot, cold, wet, or windy it might be!

Date:

Astronomy

Feb. 01, 2012 Rise Set
Actual Time 10:17 AM AKST 5:20 PM AKST
Civil Twilight 9:19 AM AKST 6:18 PM AKST
Nautical Twilight 8:20 AM AKST 7:17 PM AKST
Astronomical Twilight 7:24 AM AKST 8:13 PM AKST
Moon 11:06 AM AKST (2/1) 6:00 AM AKST (2/1)
Length of Visible Light 8h 58m
Length of Day
7h 03m
Waxing Gibbous, 66% of the Moon is Illuminated
Feb 1
Waxing Gibbous
Feb 7
Full
Feb 14
Last Quarter
Feb 21
New
Feb 29
First Quarter

Hourly Weather History & Observations

Time (AKST) Temp. Windchill Dew Point Humidity Pressure Visibility Wind Dir Wind Speed Gust Speed Precip Events Conditions
12:07 AM -50.8 °F - - N/A% 29.66 in 7.0 mi Calm Calm - N/A   Scattered Clouds
12:16 AM -50.8 °F - - N/A% 29.67 in 7.0 mi Calm Calm - N/A   Mostly Cloudy
12:39 AM -50.8 °F - - N/A% 29.67 in 4.0 mi SSW 3.5 mph - N/A   Haze
12:53 AM -50.1 °F - - N/A% 29.70 in 4.0 mi Calm Calm - N/A   Haze
1:53 AM -52.1 °F - - N/A% 29.70 in 6.0 mi Calm Calm - N/A   Haze
2:31 AM -50.8 °F - - N/A% 29.66 in 5.0 mi SW 3.5 mph - N/A   Haze
2:53 AM -52.1 °F - - N/A% 29.70 in 5.0 mi Calm Calm - N/A   Haze
3:53 AM -53.0 °F - - N/A% 29.69 in 5.0 mi SSW 3.5 mph - N/A   Haze
4:53 AM -53.0 °F - - N/A% 29.68 in 5.0 mi Calm Calm - N/A   Haze
5:41 AM -52.6 °F - - N/A% 29.63 in 6.0 mi Calm Calm - N/A   Haze
5:53 AM -51.0 °F - - N/A% 29.66 in 6.0 mi Calm Calm - N/A   Haze
6:11 AM -50.8 °F - - N/A% 29.62 in 7.0 mi SSW 3.5 mph - N/A   Scattered Clouds
6:22 AM -50.8 °F - - N/A% 29.62 in 9.0 mi Calm Calm - N/A   Mostly Cloudy
6:31 AM -50.8 °F - - N/A% 29.62 in 7.0 mi SW 3.5 mph - N/A   Scattered Clouds
6:53 AM -50.1 °F - - N/A% 29.65 in 6.0 mi Calm Calm - N/A   Haze
7:06 AM -50.8 °F - - N/A% 29.61 in 7.0 mi Calm Calm - N/A   Mostly Cloudy
7:14 AM -50.8 °F - - N/A% 29.60 in 4.0 mi Calm Calm - N/A   Haze
7:53 AM -50.1 °F - - N/A% 29.64 in 6.0 mi Calm Calm - N/A   Haze
8:08 AM -50.8 °F - - N/A% 29.60 in 7.0 mi Calm Calm - N/A   Mostly Cloudy
8:53 AM -50.1 °F - - N/A% 29.63 in 4.0 mi Calm Calm - N/A   Haze
9:29 AM -50.8 °F - - N/A% 29.57 in 0.8 mi Calm Calm - N/A   Mist
9:53 AM -51.0 °F - - N/A% 29.60 in 2.5 mi Calm Calm - N/A   Overcast
10:00 AM -50.8 °F - - N/A% 29.56 in 4.0 mi Calm Calm - N/A   Haze
10:31 AM -50.8 °F - - N/A% 29.54 in 2.5 mi Calm Calm - N/A   Overcast
10:53 AM -50.1 °F - - N/A% 29.57 in 2.0 mi Calm Calm - N/A   Overcast
11:45 AM -49.0 °F - - N/A% 29.50 in 2.5 mi Calm Calm - N/A   Overcast
11:53 AM -47.0 °F - - N/A% 29.53 in 2.0 mi Calm Calm - N/A   Overcast
12:27 PM -45.4 °F - - N/A% 29.47 in 2.5 mi Calm Calm - N/A   Overcast
12:39 PM -45.4 °F - - N/A% 29.45 in 2.5 mi Calm Calm - N/A   Overcast
12:53 PM -44.0 °F - - N/A% 29.47 in 1.5 mi Calm Calm - N/A   Overcast
1:06 PM -41.8 °F -58.7 °F - N/A% 29.43 in 1.0 mi NE 4.6 mph - N/A   Mist
1:16 PM -41.8 °F -58.7 °F - N/A% 29.43 in 0.8 mi NE 4.6 mph - N/A   Mist
1:20 PM -40.0 °F -56.6 °F - N/A% 29.42 in 1.2 mi NE 4.6 mph - N/A   Overcast
1:39 PM -41.8 °F -61.2 °F - N/A% 29.41 in 1.2 mi NNE 5.8 mph - N/A   Overcast
1:53 PM -40.0 °F -59.0 °F - N/A% 29.43 in 1.5 mi NE 5.8 mph - N/A   Overcast
2:09 PM -38.2 °F -56.9 °F - N/A% 29.39 in 3.0 mi ENE 5.8 mph - N/A   Mostly Cloudy
2:21 PM -38.2 °F -60.7 °F - N/A% 29.38 in 3.0 mi NE 8.1 mph - N/A   Scattered Clouds
2:35 PM -38.2 °F -56.9 °F - N/A% 29.37 in 2.0 mi NNE 5.8 mph - N/A   Mostly Cloudy
2:51 PM -36.4 °F -49.4 °F - N/A% 29.36 in 4.0 mi NE 3.5 mph - N/A   Haze
2:53 PM -36.9 °F -50.1 °F - N/A% 29.40 in 4.0 mi NE 3.5 mph - N/A   Haze
3:02 PM -36.4 °F -56.8 °F - N/A% 29.36 in 6.0 mi NE 6.9 mph - N/A   Haze
3:41 PM -36.4 °F -54.8 °F - N/A% 29.31 in 3.0 mi NNE 5.8 mph - N/A   Mostly Cloudy
3:53 PM -35.0 °F -53.1 °F - N/A% 29.34 in 9.0 mi NE 5.8 mph - N/A   Mostly Cloudy
4:53 PM -32.1 °F - - N/A% 29.28 in 10.0 mi Calm Calm - N/A   Overcast
5:53 PM -29.9 °F -50.6 °F - N/A% 29.23 in 10.0 mi NE 8.1 mph - N/A   Overcast
6:35 PM -29.2 °F -48.1 °F -34.6 °F 75% 29.16 in 2.5 mi NE 6.9 mph - 0.00 in Snow Light Snow
6:53 PM -27.9 °F -42.5 °F -34.1 °F 73% 29.18 in 2.5 mi ENE 4.6 mph - 0.00 in Snow Light Snow
7:23 PM -27.4 °F -41.9 °F -34.6 °F 69% 29.11 in 1.8 mi ENE 4.6 mph - 0.00 in Snow Light Snow
7:28 PM -27.4 °F -41.9 °F -32.8 °F 75% 29.11 in 2.0 mi ENE 4.6 mph - 0.00 in Snow Light Snow
7:53 PM -25.1 °F -36.5 °F -32.1 °F 70% 29.13 in 2.0 mi ENE 3.5 mph - 0.00 in Snow Light Snow
8:02 PM -25.6 °F -39.8 °F -31.0 °F 76% 29.10 in 1.8 mi East 4.6 mph - 0.00 in Snow Light Snow
8:17 PM -25.6 °F -39.8 °F -31.0 °F 76% 29.09 in 2.0 mi East 4.6 mph - 0.00 in Snow Light Snow
8:33 PM -23.8 °F -37.7 °F -31.0 °F 69% 29.08 in 1.8 mi East 4.6 mph - 0.00 in Snow Light Snow
8:53 PM -23.1 °F -36.8 °F -29.0 °F 74% 29.11 in 1.8 mi East 4.6 mph - 0.00 in Snow Light Snow
9:10 PM -22.0 °F -35.6 °F -27.4 °F 76% 29.06 in 2.0 mi ENE 4.6 mph - 0.00 in Snow Light Snow
9:17 PM -22.0 °F -33.0 °F -27.4 °F 76% 29.05 in 1.8 mi East 3.5 mph - 0.00 in Snow Light Snow
9:53 PM -20.9 °F -34.3 °F -27.0 °F 73% 29.07 in 1.5 mi East 4.6 mph - 0.00 in Snow Light Snow
10:20 PM -18.4 °F -31.4 °F -25.6 °F 70% 29.03 in 2.0 mi East 4.6 mph - 0.00 in Snow Light Snow
10:53 PM -16.1 °F -33.7 °F -22.0 °F 74% 29.05 in 2.0 mi ENE 8.1 mph - 0.00 in Snow Light Snow
11:04 PM -14.8 °F -29.1 °F -20.2 °F 77% 29.02 in 1.8 mi East 5.8 mph - 0.00 in Snow Light Snow
11:53 PM -11.9 °F -23.8 °F -18.0 °F 74% 29.04 in 2.0 mi East 4.6 mph - 0.02 in Snow Light Snow